Location: Larch Mountain
(45.5297°N, 122.0872°W)
Time: 10:27:15
(UTC-07:00)

ISS - All Passes

Search period start: 31 July 2015 00:00
Search period end: 10 August 2015 00:00
Orbit: 401 x 403 km, 51.6° (Epoch: 31 July)

Date Brightness Start Highest point End Pass type
(mag) Time Alt. Az. Time Alt. Az. Time Alt. Az.
31 Jul - 00:01:40 10° W 00:04:46 38° NNW 00:07:52 10° NE visible
31 Jul - 01:38:54 10° WNW 01:41:44 27° N 01:44:36 10° ENE visible
31 Jul - 03:15:25 10° NW 03:18:38 53° NNE 03:21:50 10° ESE visible
31 Jul - 04:52:06 10° W 04:54:55 27° SW 04:57:43 10° SSE visible
31 Jul - 21:32:39 10° SSW 21:35:24 26° SE 21:38:12 10° E visible
31 Jul - 23:08:28 10° WSW 23:11:41 55° NNW 23:14:54 10° ENE visible
01 Aug - 00:45:42 10° WNW 00:48:34 27° N 00:51:25 10° ENE visible
01 Aug - 02:22:27 10° NW 02:25:33 38° NNE 02:28:38 10° E visible
01 Aug - 03:58:53 10° WNW 04:02:03 48° SW 04:05:12 10° SE visible
01 Aug - 20:40:42 10° S 20:42:35 15° SE 20:44:33 10° E daylight
01 Aug - 22:15:23 10° WSW 22:18:39 87° NNW 22:21:56 10° ENE visible
01 Aug - 23:52:27 10° WNW 23:55:23 29° N 23:58:19 10° NE visible
02 Aug - 01:29:27 10° NW 01:32:23 30° N 01:35:22 10° ENE visible
02 Aug - 03:05:49 10° WNW 03:09:06 84° SSW 03:12:22 10° ESE night (unlit)
02 Aug - 04:43:27 10° WSW 04:45:07 13° SW 04:46:41 10° SSW visible
02 Aug - 21:22:30 10° SW 21:25:41 54° SE 21:28:53 10° ENE visible
02 Aug - 22:59:10 10° W 23:02:13 36° NNW 23:05:18 10° NE visible
03 Aug - 00:36:21 10° WNW 00:39:13 27° N 00:42:05 10° ENE visible
03 Aug - 02:12:50 10° WNW 02:16:04 60° NNE 02:19:18 10° ESE visible
03 Aug - 03:49:37 10° W 03:52:18 23° SW 03:54:56 10° SSE night (unlit)
03 Aug - 20:29:52 10° SSW 20:32:46 30° SE 20:35:41 10° ENE daylight
03 Aug - 22:05:55 10° W 22:09:06 49° NNW 22:12:18 10° NE visible
03 Aug - 23:43:10 10° WNW 23:46:01 26° N 23:48:51 10° ENE visible
04 Aug - 01:19:50 10° NW 01:22:58 41° NNE 01:26:05 10° E visible
04 Aug - 02:56:19 10° WNW 02:59:25 41° SW 03:02:30 10° SE night (unlit)
04 Aug - 19:37:42 10° S 19:39:54 17° SE 19:42:11 10° E daylight
04 Aug - 21:12:46 10° WSW 21:16:01 76° NNW 21:19:18 10° ENE visible
04 Aug - 22:49:54 10° WNW 22:52:48 28° N 22:55:42 10° NE visible
05 Aug - 00:26:49 10° NW 00:29:48 32° NNE 00:32:48 10° ENE visible
05 Aug - 02:03:11 10° WNW 02:06:27 73° SSW 02:09:42 10° SE night (unlit)
05 Aug - 03:41:22 10° WSW 03:42:25 11° SW 03:43:21 10° SSW night (unlit)
05 Aug - 20:19:47 10° SW 20:23:00 64° SSE 20:26:15 10° ENE daylight
05 Aug - 21:56:35 10° W 21:59:36 34° NNW 22:02:38 10° NE visible
05 Aug - 23:33:44 10° NW 23:36:36 28° N 23:39:29 10° ENE visible
06 Aug - 01:10:10 10° WNW 01:13:25 68° NNE 01:16:40 10° ESE visible
06 Aug - 02:47:06 10° W 02:49:35 20° SW 02:52:01 10° S night (unlit)
06 Aug - 19:27:03 10° SSW 19:30:02 35° SE 19:33:05 10° ENE daylight
06 Aug - 21:03:17 10° W 21:06:27 44° NNW 21:09:36 10° NE visible
06 Aug - 22:40:33 10° WNW 22:43:23 26° N 22:46:13 10° ENE visible
07 Aug - 00:17:09 10° NW 00:20:18 45° NNE 00:23:28 10° E visible
07 Aug - 01:53:41 10° WNW 01:56:42 35° SW 01:59:42 10° SSE night (unlit)
07 Aug - 18:34:42 10° S 18:37:09 20° SE 18:39:39 10° E daylight
07 Aug - 20:10:05 10° WSW 20:13:19 67° NNW 20:16:35 10° ENE daylight
07 Aug - 21:47:15 10° WNW 21:50:08 28° N 21:53:01 10° NE visible
07 Aug - 23:24:07 10° NW 23:27:08 34° NNE 23:30:10 10° E visible
08 Aug - 01:00:29 10° WNW 01:03:44 63° SSW 01:06:57 10° SE visible
08 Aug - 17:43:19 10° SSE 17:44:18 11° SE 17:45:24 10° ESE daylight
08 Aug - 19:17:01 10° SW 19:20:16 74° SSE 19:23:31 10° ENE daylight
08 Aug - 20:53:55 10° WNW 20:56:54 32° NNW 20:59:54 10° NE visible
08 Aug - 22:31:01 10° NW 22:33:55 28° N 22:36:49 10° ENE visible
09 Aug - 00:07:25 10° WNW 00:10:41 77° NNE 00:13:57 10° ESE visible
09 Aug - 01:44:33 10° W 01:46:48 17° SW 01:48:59 10° S night (unlit)
09 Aug - 18:24:11 10° SW 18:27:15 41° SE 18:30:21 10° ENE daylight
09 Aug - 20:00:35 10° W 20:03:42 41° NNW 20:06:49 10° NE daylight
09 Aug - 21:37:49 10° WNW 21:40:40 26° N 21:43:30 10° ENE visible
09 Aug - 23:14:22 10° NW 23:17:34 49° NNE 23:20:45 10° E visible
